[TLELIST]

Mailing List Information:

  • This mailing list is a public mailing list - anyone may join or leave, at any time.

  • This mailing list is announce-only.

International Space Station (ISS) / Hubble Space Telescope (HST) / Chandra X-Ray Observatory Orbital Data via EMAIL

Privacy Policy:

Private list

Archives:

[TLELIST] Current TLEs

Sent November 23rd 2017

HST 1 20580U 90037B 17326.64489681 .00000721 00000-0 33399-4 0 9990 2 20580 28.4706 40.3523 0002980 78.2250 75.3170 15.08925989314247 ISS (ZARYA) 1 25544U 98067A 17327.33560758 .00003117 00000-0 54162-4 0 9991 2 25544 51.6413 324.9429 0004286 145.2727 1.5367 15.54208680 86503 CXO 1 25867U 99040B 17328.02590512 .00000586 00000-0 00000+0 0 9993 2 25867 72.9711 286.8921 6802348 247.7043 0.4774 0.37803654 16657 ____________________________________________________________________ These 2-Line ...

[TLELIST] Current TLEs

Sent November 22nd 2017

HST 1 20580U 90037B 17325.57641590 .00000772 00000-0 36586-4 0 9997 2 20580 28.4705 47.4140 0002971 67.6486 30.2668 15.08925195314074 ISS (ZARYA) 1 25544U 98067A 17326.29764821 .00002632 00000-0 46883-4 0 9994 2 25544 51.6410 330.1155 0004343 142.3293 313.0995 15.54199120 86343 CXO 1 25867U 99040B 17328.02590512 .00000586 00000-0 00000+0 0 9993 2 25867 72.9711 286.8921 6802348 247.7043 0.4774 0.37803654 16657 ____________________________________________________________________ These 2-Line ...

[TLELIST] Current TLEs

Sent November 21st 2017

HST 1 20580U 90037B 17324.72339730 +.00000720 +00000-0 +33347-4 0 9998 2 20580 028.4704 053.0516 0002957 058.9513 076.0770 15.08923964313861 ISS (ZARYA) 1 25544U 98067A 17325.28385417 .00003067 00000-0 53434-4 0 9995 2 25544 51.6412 335.1690 0004348 136.4144 42.9718 15.54194486 86181 CXO 1 25867U 99040B 17325.38123169 .00000515 00000-0 00000+0 0 9991 2 25867 72.9874 286.9353 6804913 247.7855 0.4082 0.37802210 16646 ____________________________________________________________________ These 2-Line ...

[TLELIST] Current TLEs

Sent November 20th 2017

HST 1 20580U 90037B 17323.73060315 +.00000738 +00000-0 +34492-4 0 9999 2 20580 028.4703 059.6131 0002931 048.8696 082.4947 15.08923124313716 ISS (ZARYA) 1 25544U 98067A 17324.43486902 .00003270 00000-0 56505-4 0 9990 2 25544 51.6413 339.4016 0004326 132.4368 333.6533 15.54189295 86054 CXO 1 25867U 99040B 17325.38123169 .00000515 00000-0 00000+0 0 9991 2 25867 72.9874 286.9353 6804913 247.7855 0.4082 0.37802210 16646 ____________________________________________________________________ These 2-Line ...

[TLELIST] Current TLEs

Sent November 19th 2017

HST 1 20580U 90037B 17322.73781222 .00000694 00000-0 31753-4 0 9993 2 20580 28.4701 66.1746 0002895 38.5413 89.1784 15.08921870313653 ISS (ZARYA) 1 25544U 98067A 17323.27753696 .00003755 00000-0 63830-4 0 9995 2 25544 51.6415 345.1729 0004397 131.1673 335.2838 15.54182228 85878 CXO 1 25867U 99040B 17325.38123169 .00000515 00000-0 00000+0 0 9991 2 25867 72.9874 286.9353 6804913 247.7855 0.4082 0.37802210 16646 ____________________________________________________________________ These 2-Line ...

[TLELIST] Current TLEs

Sent November 18th 2017

HST 1 20580U 90037B 17321.74499630 +.00000714 +00000-0 +32972-4 0 9999 2 20580 028.4700 072.7362 0002859 028.3500 095.5942 15.08921073313419 ISS (ZARYA) 1 25544U 98067A 17322.24806701 .00004090 00000-0 68891-4 0 9992 2 25544 51.6417 350.3065 0004386 126.8467 335.8607 15.54174693 85711 CXO 1 25867U 99040B 17325.38123169 .00000515 00000-0 00000+0 0 9991 2 25867 72.9874 286.9353 6804913 247.7855 0.4082 0.37802210 16646 ____________________________________________________________________ These 2-Line ...

[TLELIST] Current TLEs

Sent November 17th 2017

HST 1 20580U 90037B 17320.61223678 +.00000690 +00000-0 +31518-4 0 9999 2 20580 028.4699 080.2229 0002821 017.0966 061.3794 15.08919913313249 ISS (ZARYA) 1 25544U 98067A 17321.28316475 .00003671 00000-0 62598-4 0 9991 2 25544 51.6419 355.1157 0004315 122.8559 337.6290 15.54164445 85563 CXO 1 25867U 99040B 17322.73632331 +.00000451 +00000-0 +00000-0 0 9993 2 25867 073.0077 286.9904 6807568 247.8481 000.3309 00.37804793005490 ____________________________________________________________________ These 2-Line ...

[TLELIST] Current TLEs

Sent November 16th 2017

HST 1 20580U 90037B 17320.06521991 .00000673 00000-0 30456-4 0 9998 2 20580 28.4698 83.8383 0002809 11.3059 329.8277 15.08919351313248 ISS (ZARYA) 1 25544U 98067A 17320.25760845 .00002780 00000-0 49193-4 0 9997 2 25544 51.6424 0.2290 0004339 120.9517 357.7535 15.54152007 85403 CXO 1 25867U 99040B 17322.73632331 +.00000451 +00000-0 +00000-0 0 9993 2 25867 073.0077 286.9904 6807568 247.8481 000.3309 00.37804793005490 ____________________________________________________________________ These 2-Line ...

[TLELIST] Current TLEs

Sent November 15th 2017

HST 1 20580U 90037B 17318.83623347 .00000598 00000-0 25797-4 0 9996 2 20580 28.4696 91.9610 0002766 358.5802 133.3409 15.08917868313069 ISS (ZARYA) 1 25544U 98067A 17319.28975696 .00003054 00000-0 53343-4 0 9997 2 25544 51.6416 5.0577 0004285 116.3155 343.7271 15.54145485 85259 CXO 1 25867U 99040B 17320.09022251 .00000410 00000-0 00000+0 0 9998 2 25867 73.0332 287.0544 6809283 247.8967 0.1321 0.37806673 16629 ____________________________________________________________________ These 2-Line ...

[TLELIST] Current TLEs

Sent November 14th 2017

HST 1 20580U 90037B 17317.70964609 .00000550 00000-0 22847-4 0 9991 2 20580 28.4693 99.4069 0002707 346.2969 133.7608 15.08916556312898 ISS (ZARYA) 1 25544U 98067A 17318.26590781 .00003604 00000-0 61643-4 0 9995 2 25544 51.6422 10.1568 0004534 114.4628 13.4467 15.54141338 85097 CXO 1 25867U 99040B 17317.44668063 +.00000407 +00000-0 +00000-0 0 9997 2 25867 073.0584 287.1224 6809262 247.9393 000.3107 00.37806782005482 ____________________________________________________________________ These 2-Line ...

< < Previous

Index

 

this list's archives:

(archive rss , atom rss/atom )

Administration